When you browse on this site, cookies collect data to enhance your experience and personalize the content and advertising you see.
Visit our Privacy Policy to learn more. By continuing to use the site, you agree to this use of cookies and data.
  • In Czech Republic
  • List of Countries
  • For 7 days
  • Water Temperature
  • Weather Map
  • Weather Widgets
  • user-avatar
    Login

    Hourly Weather Jalalabad

    Today, 3 June, Wednesday

    Time Temperature Precipitation Wind Pressure Humidity
    00:00 +29°C° 0.2 mm 1 mps 707 mmHg 53%
    01:00 +28°C° 0.2 mm 1 mps 707 mmHg 55%
    02:00 +28°C° 0.2 mm 1 mps 707 mmHg 56%
    03:00 +26°C° 0.1 mm 0 mps 707 mmHg 58%
    04:00 +25°C° 0.1 mm 0 mps 706 mmHg 59%
    05:00 +25°C° 0 mm 0 mps 706 mmHg 60%
    06:00 +26°C° 0 mm 0 mps 707 mmHg 55%
    07:00 +26°C° 0 mm 0 mps 707 mmHg 51%
    08:00 +27°C° 0 mm 0 mps 707 mmHg 47%
    09:00 +30°C° 0 mm 1 mps 707 mmHg 43%
    10:00 +31°C° 0 mm 1 mps 707 mmHg 39%
    11:00 +32°C° 0 mm 2 mps 707 mmHg 39%
    12:00 +34°C° 0.1 mm 2 mps 707 mmHg 36%
    13:00 +35°C° 0.1 mm 2 mps 707 mmHg 33%
    14:00 +36°C° 0.1 mm 3 mps 707 mmHg 29%
    15:00 +36°C° 0.1 mm 3 mps 707 mmHg 28%
    16:00 +36°C° 0.1 mm 3 mps 706 mmHg 27%
    17:00 +35°C° 0 mm 3 mps 706 mmHg 28%
    18:00 +33°C° 0.1 mm 4 mps 706 mmHg 35%
    19:00 +30°C° 0.1 mm 4 mps 706 mmHg 42%
    20:00 +28°C° 0.1 mm 4 mps 706 mmHg 49%
    21:00 +28°C° 0.2 mm 3 mps 706 mmHg 49%
    22:00 +28°C° 0.2 mm 2 mps 707 mmHg 49%
    23:00 +28°C° 0.2 mm 1 mps 707 mmHg 50%

    Tomorrow, 4 June, Thursday

    Time Temperature Precipitation Wind Pressure Humidity
    00:00 +28°C° 0.2 mm 1 mps 707 mmHg 51%
    01:00 +26°C° 0.2 mm 0 mps 706 mmHg 52%
    02:00 +26°C° 0.2 mm 0 mps 706 mmHg 54%
    03:00 +25°C° 0.2 mm 0 mps 706 mmHg 55%
    04:00 +25°C° 0.2 mm 0 mps 706 mmHg 57%
    05:00 +25°C° 0.2 mm 0 mps 706 mmHg 58%
    06:00 +26°C° 0.1 mm 0 mps 706 mmHg 54%
    07:00 +26°C° 0.1 mm 0 mps 706 mmHg 50%
    08:00 +27°C° 0.1 mm 0 mps 707 mmHg 45%
    09:00 +31°C° 0 mm 1 mps 707 mmHg 41%
    10:00 +32°C° 0 mm 1 mps 707 mmHg 37%
    11:00 +33°C° 0 mm 1 mps 706 mmHg 34%
    12:00 +34°C° 0 mm 1 mps 706 mmHg 31%
    13:00 +36°C° 0 mm 2 mps 706 mmHg 28%
    14:00 +37°C° 0 mm 2 mps 705 mmHg 25%
    15:00 +37°C° 0 mm 2 mps 705 mmHg 24%
    16:00 +38°C° 0 mm 3 mps 705 mmHg 23%
    17:00 +38°C° 0 mm 3 mps 704 mmHg 22%
    18:00 +37°C° 0 mm 3 mps 705 mmHg 25%
    19:00 +36°C° 0 mm 2 mps 705 mmHg 28%
    20:00 +35°C° 0 mm 2 mps 705 mmHg 31%
    21:00 +34°C° 0 mm 2 mps 705 mmHg 34%
    22:00 +33°C° 0 mm 1 mps 706 mmHg 37%
    23:00 +32°C° 0 mm 1 mps 706 mmHg 40%

    Day after tomorrow, 5 June, Friday

    Time Temperature Precipitation Wind Pressure Humidity
    00:00 +31°C° 0 mm 1 mps 706 mmHg 41%
    01:00 +31°C° 0 mm 1 mps 706 mmHg 42%
    02:00 +30°C° 0 mm 1 mps 706 mmHg 44%
    03:00 +30°C° 0 mm 1 mps 706 mmHg 44%
    04:00 +29°C° 0 mm 1 mps 706 mmHg 45%
    05:00 +29°C° 0 mm 1 mps 706 mmHg 46%
    06:00 +30°C° 0 mm 1 mps 706 mmHg 43%
    07:00 +31°C° 0 mm 1 mps 706 mmHg 39%
    08:00 +32°C° 0 mm 1 mps 707 mmHg 36%
    09:00 +33°C° 0 mm 1 mps 707 mmHg 33%
    10:00 +34°C° 0 mm 1 mps 707 mmHg 30%
    11:00 +35°C° 0 mm 1 mps 707 mmHg 27%
    12:00 +36°C° 0 mm 1 mps 706 mmHg 25%
    13:00 +38°C° 0 mm 2 mps 706 mmHg 22%
    14:00 +39°C° 0 mm 2 mps 706 mmHg 20%
    15:00 +39°C° 0 mm 2 mps 705 mmHg 19%
    16:00 +39°C° 0 mm 3 mps 705 mmHg 19%
    17:00 +40°C° 0 mm 3 mps 704 mmHg 19%
    18:00 +38°C° 0 mm 3 mps 705 mmHg 23%
    19:00 +37°C° 0 mm 3 mps 705 mmHg 27%
    20:00 +36°C° 0 mm 3 mps 705 mmHg 31%
    21:00 +35°C° 0 mm 2 mps 705 mmHg 34%
    22:00 +33°C° 0 mm 1 mps 706 mmHg 37%
    23:00 +33°C° 0 mm 1 mps 706 mmHg 40%

    6 June, Saturday

    Time Temperature Precipitation Wind Pressure Humidity
    00:00 +32°C° 0 mm 1 mps 706 mmHg 41%
    01:00 +31°C° 0 mm 1 mps 706 mmHg 42%
    02:00 +31°C° 0 mm 1 mps 706 mmHg 43%
    03:00 +30°C° 0 mm 1 mps 706 mmHg 45%
    04:00 +30°C° 0 mm 1 mps 706 mmHg 46%
    05:00 +29°C° 0 mm 1 mps 706 mmHg 47%
    06:00 +30°C° 0 mm 1 mps 706 mmHg 44%
    07:00 +31°C° 0 mm 1 mps 706 mmHg 41%
    08:00 +32°C° 0 mm 2 mps 707 mmHg 38%
    09:00 +34°C° 0 mm 2 mps 707 mmHg 36%
    10:00 +35°C° 0 mm 2 mps 706 mmHg 34%
    11:00 +36°C° 0 mm 2 mps 706 mmHg 31%
    12:00 +37°C° 0 mm 3 mps 706 mmHg 29%
    13:00 +38°C° 0 mm 3 mps 706 mmHg 26%
    14:00 +40°C° 0 mm 4 mps 705 mmHg 23%
    15:00 +40°C° 0 mm 4 mps 705 mmHg 24%
    16:00 +40°C° 0 mm 5 mps 705 mmHg 25%
    17:00 +40°C° 0 mm 5 mps 704 mmHg 26%
    18:00 +38°C° 0 mm 4 mps 705 mmHg 29%
    19:00 +37°C° 0 mm 3 mps 705 mmHg 33%
    20:00 +35°C° 0 mm 2 mps 705 mmHg 37%
    21:00 +35°C° 0 mm 2 mps 705 mmHg 38%
    22:00 +33°C° 0 mm 1 mps 706 mmHg 40%
    23:00 +33°C° 0 mm 1 mps 706 mmHg 41%

    7 June, Sunday

    Time Temperature Precipitation Wind Pressure Humidity
    00:00 +32°C° 0 mm 1 mps 706 mmHg 41%
    01:00 +32°C° 0 mm 1 mps 706 mmHg 41%
    02:00 +31°C° 0 mm 1 mps 706 mmHg 41%
    03:00 +31°C° 0 mm 1 mps 706 mmHg 40%
    04:00 +30°C° 0 mm 1 mps 705 mmHg 38%
    05:00 +30°C° 0 mm 1 mps 705 mmHg 37%
    06:00 +31°C° 0 mm 1 mps 706 mmHg 34%
    07:00 +32°C° 0 mm 1 mps 706 mmHg 31%
    08:00 +33°C° 0 mm 1 mps 706 mmHg 27%
    09:00 +34°C° 0 mm 1 mps 706 mmHg 25%
    10:00 +35°C° 0 mm 1 mps 706 mmHg 23%
    11:00 +37°C° 0 mm 2 mps 706 mmHg 21%
    12:00 +38°C° 0 mm 2 mps 706 mmHg 18%
    13:00 +39°C° 0 mm 2 mps 706 mmHg 16%
    14:00 +40°C° 0 mm 2 mps 705 mmHg 14%
    15:00 +41°C° 0 mm 2 mps 705 mmHg 13%
    16:00 +42°C° 0 mm 3 mps 705 mmHg 13%
    17:00 +42°C° 0 mm 3 mps 704 mmHg 12%
    18:00 +40°C° 0 mm 3 mps 704 mmHg 18%
    19:00 +38°C° 0 mm 3 mps 705 mmHg 24%
    20:00 +36°C° 0 mm 3 mps 705 mmHg 29%
    21:00 +36°C° 0 mm 2 mps 705 mmHg 32%
    22:00 +34°C° 0 mm 1 mps 705 mmHg 34%
    23:00 +33°C° 0 mm 1 mps 706 mmHg 37%

    8 June, Monday

    Time Temperature Precipitation Wind Pressure Humidity
    00:00 +33°C° 0 mm 1 mps 705 mmHg 37%
    01:00 +32°C° 0 mm 1 mps 705 mmHg 38%
    02:00 +29°C° 0 mm 0 mps 705 mmHg 39%
    03:00 +31°C° 0 mm 1 mps 705 mmHg 38%
    04:00 +30°C° 0 mm 1 mps 705 mmHg 37%
    05:00 +30°C° 0 mm 1 mps 705 mmHg 37%
    06:00 +31°C° 0 mm 1 mps 705 mmHg 32%
    07:00 +33°C° 0 mm 1 mps 705 mmHg 27%
    08:00 +34°C° 0 mm 1 mps 706 mmHg 22%
    09:00 +35°C° 0 mm 1 mps 706 mmHg 20%
    10:00 +36°C° 0 mm 1 mps 706 mmHg 18%
    11:00 +37°C° 0 mm 1 mps 706 mmHg 16%
    12:00 +39°C° 0 mm 1 mps 705 mmHg 14%
    13:00 +40°C° 0 mm 1 mps 705 mmHg 13%
    14:00 +41°C° 0 mm 1 mps 705 mmHg 11%
    15:00 +41°C° 0 mm 2 mps 704 mmHg 11%
    16:00 +41°C° 0 mm 2 mps 704 mmHg 11%
    17:00 +43°C° 0 mm 3 mps 704 mmHg 11%
    18:00 +40°C° 0 mm 2 mps 704 mmHg 15%
    19:00 +39°C° 0 mm 2 mps 704 mmHg 19%
    20:00 +38°C° 0 mm 2 mps 704 mmHg 23%
    21:00 +36°C° 0 mm 1 mps 704 mmHg 26%
    22:00 +36°C° 0 mm 1 mps 705 mmHg 29%
    23:00 +35°C° 0 mm 1 mps 705 mmHg 32%
    Show more